Regional Weather Roundup
Issued by NWS

Home | Current Version | Previous Version | Graphics & Text | Print | Product List | Glossary Off
Versions: 1 2 3 4 5 6 7 8 9 10 11 12 13 14 15 16 17 18 19 20 21 22 23 24 25 26 27 28 29 30 31 32 33 34 35 36 37 38 39 40 41 42 43 44 45 46 47 48 49 50

000
ASUS43 KMPX 310301
RWRMN
WEATHER ROUNDUP FOR MINNESOTA
NATIONAL WEATHER SERVICE TWIN CITIES/CHANHASSEN MN
900 PM CST FRI JAN 30 2015


NOTE: "FAIR" INDICATES FEW OR NO CLOUDS BELOW 12,000 FEET WITH NO
SIGNIFICANT WEATHER AND/OR OBSTRUCTIONS TO VISIBILITY. N/A MEANS
CURRENT SKY AND/OR WEATHER CONDITIONS ARE NOT AVAILABLE.

MNZ060>063-068>070-310400-
   Twin Cities Metro

CITY           SKY/WX    TMP DP  RH WIND       PRES   REMARKS
TWIN CITIES    PTCLDY    25  18  74 S5        30.21F WCI  19
ST PAUL        CLEAR     23  17  78 SE6       30.23F WCI  16
CRYSTAL        FAIR      24  18  77 S7        30.19F WCI  16
BLAINE         PTCLDY    25  21  86 S7        30.20F WCI  17
LAKEVILLE      CLEAR     23  19  86 S8        30.20F WCI  14
EDEN PRAIRIE   CLEAR     25  19  78 S7        30.20F WCI  17
SOUTH ST PAUL  CLEAR     24  18  80 CALM      30.22F
LAKE ELMO      FAIR      21  18  86 S6        30.22F WCI  14
$$
MNZ001>005-007-008-013>017-022>024-027-028-310400-
   Northwest Minnesota

CITY           SKY/WX    TMP DP  RH WIND       PRES   REMARKS
BEMIDJI        CLOUDY    23  18  81 SW3       30.09F
HALLOCK        CLOUDY    19  16  86 N21       30.17R WCI   3
ROSEAU         CLOUDY    21  16  79 NW3       30.13R
WARROAD        CLOUDY    19  16  86 CALM      30.12F
THIEF RVR FALL CLOUDY    23  19  86 W5        30.13R WCI  17
CROOKSTON      CLOUDY    27  23  86 N14       30.15R WCI  15
FOSSTON        CLOUDY    21  18  86 SW8       30.11S WCI  12
DETROIT LAKES  CLEAR     21  21 100 S6        30.11F WCI  14
MOORHEAD       CLEAR     23  23 100 CALM      30.15R
PARK RAPIDS    CLOUDY    23  18  81 CALM      30.10F
MAHNOMEN       FAIR      20  18  89 SW12      30.10F WCI   9
$$
MNZ006-009>011-018-025>026-310400-
   North Central Minnesota

CITY           SKY/WX    TMP DP  RH WIND       PRES   REMARKS
BAUDETTE       CLOUDY    17  10  74 CALM      30.10F
FLAG ISLAND    CLOUDY    12  10  92 CALM      30.12S
INTL FALLS     CLOUDY    13   9  84 CALM      30.11F
WASKISH        CLOUDY    19  12  73 CALM      30.12S
BIG FORK       CLOUDY    19  10  68 CALM      30.11F
LONGVILLE      CLOUDY    23  16  74 S5        30.11F WCI  17
GRAND RAPIDS   CLOUDY    18  10  73 SE3       30.11F
CRANE LAKE     LGT SNOW  12   9  85 S3        30.15F
ORR            FLURRIES  14   7  73 CALM      30.09F
COOK           FLURRIES  16   7  67 S3        30.13F
WALKER         CLOUDY    23  17  78 SW6       30.10F WCI  16
$$
MNZ012-019>021-037-310400-
   Northeast Minnesota

CITY           SKY/WX    TMP DP  RH WIND       PRES   REMARKS
DULUTH         CLOUDY    16   6  65 SW6       30.14F WCI   7
ELY            FLURRIES  12   7  79 S5        30.13F WCI   4
HIBBING        CLOUDY    16   5  62 S5        30.13F WCI   9
EVELETH        MOCLDY    16   7  67 S3        30.15S
DULUTH HARBOR  CLOUDY    18   9  68 CALM      30.22F
TWO HARBORS    CLOUDY    18   9  68 SW6       30.16F WCI   9
SILVER BAY     CLOUDY    18   7  62 SW6       30.16F WCI   9
GRAND MARAIS     N/A     22  18  85 SW20      30.20S WCI   7
G MARAIS ARPRT LGT SNOW  12   7  79 SW7       30.11S VSB 3/4 WCI   2
$$
MNZ029>031-032-039>041-046>048-054>057-064-310400-
   West Central Minnesota

CITY           SKY/WX    TMP DP  RH WIND       PRES   REMARKS
FERGUS FALLS   CLEAR     21  19  93 S6        30.16S WCI  14
WHEATON        CLEAR     27  25  93 SW5       30.17R WCI  21
MORRIS         CLEAR     28  27  93 SW7       30.13S WCI  21
ALEXANDRIA     CLEAR     20  17  88 SW6       30.13S WCI  12
ELBOW LAKE     FAIR      22  21  96 S5        30.13S WCI  15
WADENA         MOCLDY    21  18  86 S3        30.12S
GLENWOOD       CLEAR     21  21 100 SW3       30.14R
APPLETON       CLEAR     27  25  93 S6        30.14F WCI  20
BENSON         CLEAR     27  25  93 SW5       30.14F WCI  21
ORTONVILLE     CLEAR     30  27  86 W3        30.14F
MADISON        CLEAR     36  32  87 W5        30.15F
WILLMAR        FAIR      27  23  86 CALM      30.16F
$$
MNZ033>034-036-042>043-049>051-058-059-310400-
   Central Minnesota

CITY           SKY/WX    TMP DP  RH WIND       PRES   REMARKS
ST CLOUD       CLOUDY    24  18  77 SE8       30.16F WCI  15
SAUK CENTRE    FAIR      22  19  91 SE5       30.13F WCI  15
PAYNESVILLE    CLEAR     23  21  94 SE8       30.15F WCI  13
AITKIN         CLOUDY    27  18  69 S5        30.13F WCI  21
PINE RIVER     CLOUDY    23  18  80 S3        30.15F
BRAINERD       CLOUDY    24  17  74 S5        30.14F WCI  18
STAPLES        CLOUDY    23  18  80 S5        30.13S WCI  17
LONG PRAIRIE   FAIR      23  21  93 S5        30.14S WCI  17
LITTLE FALLS   CLOUDY    27  19  74 CALM      30.15F
LITCHFIELD     CLEAR     25  25 100 S5        30.16F WCI  19
BUFFALO        CLEAR     24  19  83 S3        30.19F
MAPLE LAKE     PTCLDY    24  21  88 S5        30.17F WCI  18
$$
MNZ037-044-045-052-053-310400-
   East Central Minnesota

CITY           SKY/WX    TMP DP  RH WIND       PRES   REMARKS
PRINCETON      CLOUDY    27  18  69 SE6       30.17F WCI  20
MORA           CLOUDY    21  12  68 SE3       30.19F
CAMBRIDGE      CLOUDY    27  16  63 CALM      30.17F
RUSH CITY      CLOUDY    21  14  74 SE3       30.20F
MOOSE LAKE     CLOUDY    21  10  63 S3        30.16F
HINCKLEY       CLOUDY    21  14  73 E3        30.19F
CLOQUET        CLOUDY    16   7  67 CALM      30.15F
MCGREGOR       CLOUDY    23  14  68 S6        30.15F WCI  16
$$
MNZ071>073-080-081-089-090-097-098-310400-
   Southwest Minnesota

CITY           SKY/WX    TMP DP  RH WIND       PRES   REMARKS
MONTEVIDEO     CLEAR     28  27  93 SW3       30.16F
GRANITE FALLS  CLEAR     26  24  92 S6        30.17F WCI  20
CANBY          CLEAR     34  29  82 SW12      30.15F WCI  26
MARSHALL       CLEAR     34  25  69 W15       30.15F WCI  24
REDWOOD FALLS  CLEAR     27  23  85 S5        30.17F WCI  22
OLIVIA         CLEAR     27  25  93 S5        30.16F WCI  21
PIPESTONE      FAIR      30  27  86 S7        30.15S WCI  23
WINDOM         CLEAR     30  27  86 SW9       30.17S WCI  22
WORTHINGTON    CLEAR     30  25  80 SW21      30.16S WCI  17
JACKSON        CLEAR     32  25  74 SW17      30.18F WCI  21
TRACY          CLEAR     32  28  85 SW18G25   30.14F WCI  21
SLAYTON        CLEAR     30  26  86 SW20      30.14F WCI  17
$$
MNZ065>067-074>077-082>085-091>093-310400-
   South Central Minnesota

CITY           SKY/WX    TMP DP  RH WIND       PRES   REMARKS
MANKATO        CLEAR     27  19  74 S8        30.21S WCI  18
NEW ULM        CLEAR     27  23  86 S7        30.19S WCI  19
ST JAMES       CLEAR     30  25  80 S9        30.21S WCI  22
FAIRMONT       FAIR      28  21  74 S12       30.19R WCI  18
GLENCOE        CLEAR     27  24  90 S7        30.18F WCI  19
FARIBAULT      CLEAR     25  19  80 S7        30.21F WCI  17
OWATONNA       CLEAR     25  19  80 S12       30.21F WCI  14
WASECA         CLEAR     25  21  86 S9        30.23F WCI  15
ALBERT LEA     CLEAR     27  19  74 S8        30.22S WCI  18
$$
MNZ078>079-086>088-094>096-310400-
   Southeast Minnesota

CITY           SKY/WX    TMP DP  RH WIND       PRES   REMARKS
ROCHESTER      CLEAR     20  13  74 S10       30.23F WCI   9
RED WING       CLEAR     19  12  73 CALM      30.24R
STANTON        CLEAR     26  20  77 S6        30.20F WCI  19
DODGE CENTER   CLEAR     25  19  80 S12       30.22S WCI  14
WINONA         CLOUDY    23  12  63 CALM      30.28F
AUSTIN         CLEAR     23  18  80 S7        30.24R WCI  15
PRESTON        CLEAR     21  12  69 S15       30.25S WCI   7
$$
ABBREVIATIONS USED IN REMARKS
   TC - TEMPERATURES IN CELSIUS
  WCI - WIND CHILL INDEX
   HX - HEAT INDEX
  VSB - VISIBILITY
$$



USA.gov is the U.S. government's official web portal to all federal, state and local government web resources and services.